Check out our new BloomSky Weather System.

Active alerts

Houston, TX
  Details for Houston, TX Dense Fog Advisory


Thunder radar  blitzortung!


Rain radar more information rain snow radar


Visit our other weather sites:

Template documentation
and downloads

And another site



Weather Underground History page Text

Daily Summary for June 23, 2017 Units:  Metric    English   Both
« Previous Day
Next Day »
Daily Weekly Monthly Yearly Custom
  High: Low: Average:
Temperature: 36.1 °C 26.6 °C 30.5 °C
Dew Point: 26.3 °C 23.9 °C 25.6 °C
Humidity: 94 % 52 % 77 %
Wind Speed: 19.3 km/h 0 km/h 7.6 km/h
Wind Gust: 24.1 km/h - -
Wind:- - SSE
Pressure: 1012.4 hPa 1006.7 hPa -
Precipitation: 0 mm    
Historical Graphs
 
 
Tabular Data for June 23, 2017
Time Temperature Dew Point Pressure Wind Wind Speed Wind Gust Humidity Rainfall Rate (Hourly)
00:00 28 °C 25.8 °C 1006.7 hPa South 4.8 km/h 14.5 km/h 88 % 0 mm
00:05 27.9 °C 25.7 °C 1006.7 hPa SSE 12.9 km/h 17.7 km/h 88 % 0 mm
00:10 27.9 °C 25.7 °C 1006.7 hPa South 4.8 km/h 17.7 km/h 88 % 0 mm
00:15 27.8 °C 25.8 °C 1006.7 hPa South 6.4 km/h 17.7 km/h 89 % 0 mm
00:20 27.8 °C 25.8 °C 1006.7 hPa SE 8 km/h 17.7 km/h 89 % 0 mm
00:25 27.7 °C 25.7 °C 1006.7 hPa SE 6.4 km/h 17.7 km/h 89 % 0 mm
00:30 27.7 °C 25.7 °C 1006.7 hPa SE 6.4 km/h 17.7 km/h 89 % 0 mm
00:35 27.7 °C 25.7 °C 1006.7 hPa SSE 8 km/h 17.7 km/h 89 % 0 mm
00:40 27.7 °C 25.7 °C 1006.7 hPa South 6.4 km/h 17.7 km/h 89 % 0 mm
00:45 27.6 °C 25.6 °C 1006.7 hPa South 8 km/h 16.1 km/h 89 % 0 mm
00:50 27.6 °C 25.8 °C 1006.7 hPa SSE 6.4 km/h 16.1 km/h 90 % 0 mm
00:55 27.6 °C 25.8 °C 1006.7 hPa South 6.4 km/h 16.1 km/h 90 % 0 mm
01:00 27.6 °C 25.8 °C 1006.7 hPa SSE 4.8 km/h 16.1 km/h 90 % 0 mm
01:05 27.6 °C 25.8 °C 1006.7 hPa SE 6.4 km/h 16.1 km/h 90 % 0 mm
01:10 27.6 °C 25.8 °C 1006.7 hPa SE 6.4 km/h 12.9 km/h 90 % 0 mm
01:15 27.5 °C 25.7 °C 1006.7 hPa SSE 3.2 km/h 12.9 km/h 90 % 0 mm
01:20 27.5 °C 25.7 °C 1006.7 hPa SE 6.4 km/h 14.5 km/h 90 % 0 mm
01:25 27.5 °C 25.7 °C 1006.7 hPa SSE 3.2 km/h 14.5 km/h 90 % 0 mm
01:30 27.4 °C 25.6 °C 1006.7 hPa South 4.8 km/h 14.5 km/h 90 % 0 mm
01:35 27.4 °C 25.6 °C 1006.7 hPa South 4.8 km/h 9.7 km/h 90 % 0 mm
01:40 27.4 °C 25.6 °C 1006.7 hPa SE 6.4 km/h 9.7 km/h 90 % 0 mm
01:45 27.4 °C 25.8 °C 1006.7 hPa SSE 4.8 km/h 11.3 km/h 91 % 0 mm
01:50 27.4 °C 25.8 °C 1006.7 hPa SSW 1.6 km/h 11.3 km/h 91 % 0 mm
01:55 27.3 °C 25.7 °C 1007 hPa South 1.6 km/h 11.3 km/h 91 % 0 mm
02:00 27.3 °C 25.7 °C 1007 hPa South 3.2 km/h 9.7 km/h 91 % 0 mm
02:05 27.3 °C 25.7 °C 1007 hPa SE 3.2 km/h 9.7 km/h 91 % 0 mm
02:10 27.3 °C 25.7 °C 1007 hPa South 4.8 km/h 14.5 km/h 91 % 0 mm
02:15 27.3 °C 25.7 °C 1007 hPa SE 8 km/h 14.5 km/h 91 % 0 mm
02:20 27.3 °C 25.7 °C 1007 hPa SW 9.7 km/h 14.5 km/h 91 % 0 mm
02:25 27.2 °C 25.6 °C 1007 hPa ESE 12.9 km/h 12.9 km/h 91 % 0 mm
02:30 27.2 °C 25.6 °C 1007 hPa SSE 12.9 km/h 12.9 km/h 91 % 0 mm
02:35 27.2 °C 25.6 °C 1007.3 hPa SSE 4.8 km/h 14.5 km/h 91 % 0 mm
02:40 27.2 °C 25.6 °C 1007 hPa SSE 8 km/h 14.5 km/h 91 % 0 mm
02:45 27.2 °C 25.8 °C 1007 hPa SSE 4.8 km/h 14.5 km/h 92 % 0 mm
02:50 27.2 °C 25.8 °C 1007 hPa SE 9.7 km/h 14.5 km/h 92 % 0 mm
02:55 27.2 °C 25.8 °C 1007 hPa SSE 8 km/h 14.5 km/h 92 % 0 mm
03:00 27.2 °C 25.8 °C 1007 hPa SSE 11.3 km/h 14.5 km/h 92 % 0 mm
03:05 27.2 °C 25.8 °C 1007 hPa South 6.4 km/h 16.1 km/h 92 % 0 mm
03:10 27.2 °C 25.8 °C 1007 hPa East 8 km/h 16.1 km/h 92 % 0 mm
03:15 27.2 °C 25.8 °C 1007 hPa South 6.4 km/h 16.1 km/h 92 % 0 mm
03:20 27.2 °C 25.8 °C 1007 hPa SSW 4.8 km/h 11.3 km/h 92 % 0 mm
03:25 27.1 °C 25.7 °C 1007 hPa SSW 3.2 km/h 11.3 km/h 92 % 0 mm
03:30 27.1 °C 25.7 °C 1007 hPa ESE 14.5 km/h 14.5 km/h 92 % 0 mm
03:35 27.1 °C 25.7 °C 1007 hPa SSE 9.7 km/h 14.5 km/h 92 % 0 mm
03:40 27.1 °C 25.7 °C 1007 hPa SSE 8 km/h 14.5 km/h 92 % 0 mm
03:45 27.1 °C 25.7 °C 1007 hPa SW 12.9 km/h 17.7 km/h 92 % 0 mm
03:50 27.1 °C 25.7 °C 1007 hPa SSW 8 km/h 17.7 km/h 92 % 0 mm
03:55 27.1 °C 25.7 °C 1007 hPa SE 6.4 km/h 17.7 km/h 92 % 0 mm
04:01 27.1 °C 25.7 °C 1007 hPa South 9.7 km/h 14.5 km/h 92 % 0 mm
04:06 27.1 °C 25.7 °C 1007 hPa SSE 8 km/h 16.1 km/h 92 % 0 mm
04:11 27.1 °C 25.7 °C 1007 hPa SE 8 km/h 16.1 km/h 92 % 0 mm
04:16 27.1 °C 25.7 °C 1007 hPa South 9.7 km/h 16.1 km/h 92 % 0 mm
04:21 27.1 °C 25.7 °C 1007 hPa South 6.4 km/h 16.1 km/h 92 % 0 mm
04:26 27.1 °C 25.9 °C 1007.3 hPa SSE 8 km/h 16.1 km/h 93 % 0 mm
04:31 27.1 °C 25.9 °C 1007 hPa SSE 6.4 km/h 16.1 km/h 93 % 0 mm
04:36 27.1 °C 25.9 °C 1007 hPa SSE 11.3 km/h 12.9 km/h 93 % 0 mm
04:41 27.1 °C 25.9 °C 1007.3 hPa South 3.2 km/h 12.9 km/h 93 % 0 mm
04:46 27 °C 25.8 °C 1007.3 hPa ESE 9.7 km/h 16.1 km/h 93 % 0 mm
04:51 27 °C 25.8 °C 1007.3 hPa SSW 3.2 km/h 19.3 km/h 93 % 0 mm
04:56 27 °C 25.8 °C 1007.3 hPa SE 12.9 km/h 19.3 km/h 93 % 0 mm
05:01 27 °C 25.8 °C 1007.3 hPa SE 8 km/h 19.3 km/h 93 % 0 mm
05:06 27 °C 25.8 °C 1007.3 hPa SE 3.2 km/h 12.9 km/h 93 % 0 mm
05:11 27 °C 25.8 °C 1007.3 hPa SSE 4.8 km/h 12.9 km/h 93 % 0 mm
05:16 27 °C 25.8 °C 1007.3 hPa SSE 4.8 km/h 12.9 km/h 93 % 0 mm
05:21 27 °C 25.8 °C 1007.7 hPa SE 3.2 km/h 12.9 km/h 93 % 0 mm
05:26 26.9 °C 25.7 °C 1007.7 hPa SSE 8 km/h 14.5 km/h 93 % 0 mm
05:31 26.9 °C 25.7 °C 1007.3 hPa SSE 6.4 km/h 14.5 km/h 93 % 0 mm
05:36 27 °C 25.8 °C 1007.7 hPa SSE 3.2 km/h 14.5 km/h 93 % 0 mm
05:41 26.9 °C 25.7 °C 1007.3 hPa SE 6.4 km/h 16.1 km/h 93 % 0 mm
05:46 26.9 °C 25.7 °C 1007.7 hPa SW 11.3 km/h 16.1 km/h 93 % 0 mm
05:51 26.9 °C 25.7 °C 1007.7 hPa East 12.9 km/h 16.1 km/h 93 % 0 mm
05:56 26.9 °C 25.7 °C 1007.7 hPa SE 8 km/h 14.5 km/h 93 % 0 mm
06:01 26.9 °C 25.7 °C 1007.7 hPa SE 6.4 km/h 14.5 km/h 93 % 0 mm
06:06 26.8 °C 25.6 °C 1007.7 hPa ESE 8 km/h 14.5 km/h 93 % 0 mm
06:11 26.8 °C 25.6 °C 1007.7 hPa South 8 km/h 14.5 km/h 93 % 0 mm
06:16 26.8 °C 25.6 °C 1007.7 hPa SE 8 km/h 14.5 km/h 93 % 0 mm
06:21 26.8 °C 25.6 °C 1007.7 hPa South 9.7 km/h 11.3 km/h 93 % 0 mm
06:26 26.7 °C 25.5 °C 1007.7 hPa South 4.8 km/h 11.3 km/h 93 % 0 mm
06:31 26.7 °C 25.5 °C 1007.7 hPa ESE 4.8 km/h 17.7 km/h 93 % 0 mm
06:36 26.7 °C 25.5 °C 1007.7 hPa SSE 4.8 km/h 17.7 km/h 93 % 0 mm
06:42 26.6 °C 25.6 °C 1008 hPa SSE 3.2 km/h 17.7 km/h 94 % 0 mm
06:47 26.6 °C 25.6 °C 1008 hPa SSW 9.7 km/h 12.9 km/h 94 % 0 mm
06:52 26.6 °C 25.6 °C 1008 hPa SSE 4.8 km/h 11.3 km/h 94 % 0 mm
06:57 26.6 °C 25.6 °C 1008 hPa SSW 3.2 km/h 11.3 km/h 94 % 0 mm
06:58 26.6 °C 25.6 °C 1008 hPa ESE 3.2 km/h 11.3 km/h 94 % 0 mm
07:03 26.6 °C 25.6 °C 1008 hPa SSE 8 km/h 11.3 km/h 94 % 0 mm
07:08 26.6 °C 25.6 °C 1008.4 hPa SSW 6.4 km/h 9.7 km/h 94 % 0 mm
07:13 26.7 °C 25.7 °C 1008.4 hPa SSW 3.2 km/h 12.9 km/h 94 % 0 mm
07:18 26.7 °C 25.7 °C 1008.4 hPa South 4.8 km/h 12.9 km/h 94 % 0 mm
07:23 26.8 °C 25.8 °C 1008.4 hPa SW 4.8 km/h 12.9 km/h 94 % 0 mm
07:24 26.8 °C 25.6 °C 1008.4 hPa South 3.2 km/h 12.9 km/h 93 % 0 mm
07:29 26.9 °C 25.7 °C 1008.7 hPa SSE 1.6 km/h 9.7 km/h 93 % 0 mm
07:34 27.1 °C 25.9 °C 1008.7 hPa South 4.8 km/h 14.5 km/h 93 % 0 mm
07:39 27.2 °C 26 °C 1008.7 hPa SSE 6.4 km/h 14.5 km/h 93 % 0 mm
07:44 27.3 °C 25.9 °C 1008.7 hPa SE 3.2 km/h 14.5 km/h 92 % 0 mm
07:49 27.4 °C 26 °C 1008.7 hPa SSE 4.8 km/h 12.9 km/h 92 % 0 mm
07:54 27.7 °C 26.1 °C 1008.7 hPa SSE 3.2 km/h 12.9 km/h 91 % 0 mm
07:59 27.9 °C 26.1 °C 1008.7 hPa South 3.2 km/h 12.9 km/h 90 % 0 mm
08:04 28.1 °C 26.1 °C 1008.7 hPa SE 4.8 km/h 14.5 km/h 89 % 0 mm
08:09 28.2 °C 25.8 °C 1008.7 hPa South 6.4 km/h 16.1 km/h 87 % 0 mm
08:14 28.3 °C 26.1 °C 1008.7 hPa SSE 9.7 km/h 17.7 km/h 88 % 0 mm
08:19 28.3 °C 25.9 °C 1008.7 hPa SSW 1.6 km/h 17.7 km/h 87 % 0 mm
08:24 28.4 °C 26 °C 1008.7 hPa SSW 8 km/h 17.7 km/h 87 % 0 mm
08:29 28.6 °C 26 °C 1009 hPa SSE 6.4 km/h 17.7 km/h 86 % 0 mm
08:34 28.8 °C 26 °C 1009 hPa South 14.5 km/h 19.3 km/h 85 % 0 mm
08:39 28.9 °C 25.9 °C 1009 hPa SE 6.4 km/h 19.3 km/h 84 % 0 mm
08:44 29.2 °C 26 °C 1009 hPa SSE 6.4 km/h 19.3 km/h 83 % 0 mm
08:49 29.3 °C 26.1 °C 1009 hPa SSE 11.3 km/h 19.3 km/h 83 % 0 mm
08:54 29.4 °C 26 °C 1009 hPa South 6.4 km/h 19.3 km/h 82 % 0 mm
08:59 29.4 °C 26 °C 1009 hPa South 8 km/h 19.3 km/h 82 % 0 mm
09:04 29.3 °C 25.9 °C 1009.4 hPa SSE 11.3 km/h 17.7 km/h 82 % 0 mm
09:09 29.6 °C 26 °C 1009.4 hPa SE 6.4 km/h 17.7 km/h 81 % 0 mm
09:14 29.6 °C 25.8 °C 1009 hPa SSW 6.4 km/h 17.7 km/h 80 % 0 mm
09:19 29.4 °C 25.6 °C 1009.4 hPa SSW 11.3 km/h 17.7 km/h 80 % 0 mm
09:24 29.3 °C 25.7 °C 1009.4 hPa South 6.4 km/h 20.9 km/h 81 % 0 mm
09:29 29.5 °C 25.9 °C 1009.4 hPa SSW 3.2 km/h 20.9 km/h 81 % 0 mm
09:34 29.9 °C 26.1 °C 1009.4 hPa SSE 14.5 km/h 20.9 km/h 80 % 0 mm
09:39 29.9 °C 25.9 °C 1009.4 hPa SSE 8 km/h 24.1 km/h 79 % 0 mm
09:44 30 °C 25.7 °C 1009.4 hPa SE 9.7 km/h 24.1 km/h 78 % 0 mm
09:49 30.1 °C 25.6 °C 1009.4 hPa ESE 12.9 km/h 24.1 km/h 77 % 0 mm
09:54 30.1 °C 25.6 °C 1009.4 hPa SSE 9.7 km/h 17.7 km/h 77 % 0 mm
09:59 30.2 °C 25.9 °C 1009.4 hPa South 6.4 km/h 19.3 km/h 78 % 0 mm
10:04 30.3 °C 26 °C 1009.4 hPa SE 12.9 km/h 19.3 km/h 78 % 0 mm
10:09 30.3 °C 25.8 °C 1009.4 hPa SW 6.4 km/h 19.3 km/h 77 % 0 mm
10:11 30.3 °C 25.8 °C 1009.4 hPa West 9.7 km/h 17.7 km/h 77 % 0 mm
10:16 30.1 °C 25.6 °C 1009.4 hPa SSW 3.2 km/h 17.7 km/h 77 % 0 mm
10:21 30.1 °C 25.6 °C 1009 hPa SE 6.4 km/h 17.7 km/h 77 % 0 mm
10:22 30.1 °C 25.6 °C 1009 hPa SSW 4.8 km/h 17.7 km/h 77 % 0 mm
10:27 30.2 °C 25.7 °C 1009.4 hPa SSW 4.8 km/h 17.7 km/h 77 % 0 mm
10:32 30.2 °C 25.7 °C 1009.4 hPa SSW 4.8 km/h 14.5 km/h 77 % 0 mm
10:37 30.2 °C 25.7 °C 1009.4 hPa SE 8 km/h 14.5 km/h 77 % 0 mm
10:42 30.3 °C 25.4 °C 1009.4 hPa SSE 3.2 km/h 14.5 km/h 75 % 0 mm
10:47 30.5 °C 25.6 °C 1009.4 hPa SSE 4.8 km/h 14.5 km/h 75 % 0 mm
10:52 30.7 °C 25.8 °C 1009.7 hPa SW 6.4 km/h 11.3 km/h 75 % 0 mm
10:57 30.8 °C 25.9 °C 1009.7 hPa SW 3.2 km/h 11.3 km/h 75 % 0 mm
11:02 30.9 °C 25.5 °C 1009.7 hPa South 9.7 km/h 11.3 km/h 73 % 0 mm
11:07 31.1 °C 25 °C 1009.7 hPa SSW 8 km/h 14.5 km/h 70 % 0 mm
11:12 31.3 °C 25.6 °C 1009.7 hPa Calm   16.1 km/h 72 % 0 mm
11:17 31.3 °C 25.6 °C 1009.7 hPa NW 4.8 km/h 16.1 km/h 72 % 0 mm
11:22 31.4 °C 25.7 °C 1009.7 hPa SSE 3.2 km/h 16.1 km/h 72 % 0 mm
11:27 31.6 °C 25.9 °C 1009.7 hPa SSE 4.8 km/h 12.9 km/h 72 % 0 mm
11:32 32 °C 25.6 °C 1010 hPa SE 11.3 km/h 14.5 km/h 69 % 0 mm
11:37 32.4 °C 25.7 °C 1010 hPa SW 1.6 km/h 19.3 km/h 68 % 0 mm
11:42 32.5 °C 25.3 °C 1010 hPa South 4.8 km/h 19.3 km/h 66 % 0 mm
11:47 32.4 °C 25.5 °C 1010 hPa SE 6.4 km/h 19.3 km/h 67 % 0 mm
11:52 32.5 °C 25.6 °C 1010 hPa SW 4.8 km/h 12.9 km/h 67 % 0 mm
11:57 32.7 °C 25.5 °C 1010 hPa SE 11.3 km/h 14.5 km/h 66 % 0 mm
12:02 33 °C 25.3 °C 1010 hPa South 6.4 km/h 16.1 km/h 64 % 0 mm
12:07 33.1 °C 25.9 °C 1010 hPa South 6.4 km/h 16.1 km/h 66 % 0 mm
12:12 33.1 °C 25.1 °C 1010 hPa ESE 8 km/h 16.1 km/h 63 % 0 mm
12:17 33 °C 26 °C 1010 hPa SSW 3.2 km/h 16.1 km/h 67 % 0 mm
12:22 32.8 °C 25.6 °C 1010.4 hPa SSW 8 km/h 16.1 km/h 66 % 0 mm
12:26 32.6 °C 25.9 °C 1010 hPa SSE 8 km/h 16.1 km/h 68 % 0 mm
12:31 32.6 °C 25.7 °C 1010 hPa SSW 3.2 km/h 14.5 km/h 67 % 0 mm
12:36 32.9 °C 26 °C 1010 hPa SE 9.7 km/h 14.5 km/h 67 % 0 mm
12:41 33.2 °C 25.7 °C 1010 hPa SW 1.6 km/h 12.9 km/h 65 % 0 mm
12:46 33.4 °C 25.4 °C 1010 hPa SSW 8 km/h 11.3 km/h 63 % 0 mm
12:51 33.5 °C 25.7 °C 1010 hPa WSW 3.2 km/h 14.5 km/h 64 % 0 mm
12:53 33.5 °C 25.7 °C 1010 hPa SE 3.2 km/h 14.5 km/h 64 % 0 mm
12:58 33.4 °C 25.9 °C 1010 hPa SSW 3.2 km/h 14.5 km/h 65 % 0 mm
13:03 33.6 °C 25.6 °C 1009.7 hPa South 8 km/h 14.5 km/h 63 % 0 mm
13:08 33.7 °C 25.9 °C 1010 hPa South 14.5 km/h 16.1 km/h 64 % 0 mm
13:13 33.7 °C 25.4 °C 1009.7 hPa SE 9.7 km/h 19.3 km/h 62 % 0 mm
13:18 34 °C 25.4 °C 1009.7 hPa SSE 16.1 km/h 19.3 km/h 61 % 0 mm
13:23 34.3 °C 26.2 °C 1009.7 hPa SW 8 km/h 19.3 km/h 63 % 0 mm
13:28 34.5 °C 25.6 °C 1009.7 hPa SSE 8 km/h 19.3 km/h 60 % 0 mm
13:33 34.8 °C 25.3 °C 1009.7 hPa South 8 km/h 19.3 km/h 58 % 0 mm
13:38 34.9 °C 25.4 °C 1009.4 hPa SE 6.4 km/h 19.3 km/h 58 % 0 mm
13:43 34.6 °C 25.1 °C 1009.4 hPa ESE 9.7 km/h 16.1 km/h 58 % 0 mm
13:48 34.3 °C 25.4 °C 1009.4 hPa SSW 4.8 km/h 19.3 km/h 60 % 0 mm
13:49 34.3 °C 24.8 °C 1009.4 hPa SSE 6.4 km/h 19.3 km/h 58 % 0 mm
13:54 34.4 °C 24.6 °C 1009.4 hPa SE 6.4 km/h 19.3 km/h 57 % 0 mm
13:59 34.4 °C 24.9 °C 1009.4 hPa SE 16.1 km/h 19.3 km/h 58 % 0 mm
14:04 34.8 °C 24.7 °C 1009.4 hPa SSE 14.5 km/h 19.3 km/h 56 % 0 mm
14:09 34.8 °C 24.7 °C 1009.4 hPa SSE 11.3 km/h 19.3 km/h 56 % 0 mm
14:14 34.7 °C 24.6 °C 1009.4 hPa SE 9.7 km/h 19.3 km/h 56 % 0 mm
14:19 34.6 °C 24.5 °C 1009.4 hPa South 4.8 km/h 19.3 km/h 56 % 0 mm
14:24 34.7 °C 24.6 °C 1009.4 hPa WSW 6.4 km/h 19.3 km/h 56 % 0 mm
14:29 34.7 °C 24.9 °C 1009.4 hPa SE 1.6 km/h 16.1 km/h 57 % 0 mm
14:34 34.7 °C 24.9 °C 1009.4 hPa SE 3.2 km/h 16.1 km/h 57 % 0 mm
14:39 34.8 °C 24.7 °C 1009.4 hPa SSE 6.4 km/h 16.1 km/h 56 % 0 mm
14:44 34.7 °C 25.2 °C 1009.4 hPa SSW 1.6 km/h 16.1 km/h 58 % 0 mm
14:49 35 °C 24.9 °C 1009.4 hPa SE 11.3 km/h 16.1 km/h 56 % 0 mm
14:54 35 °C 25.2 °C 1009 hPa SSW 11.3 km/h 19.3 km/h 57 % 0 mm
14:59 35.2 °C 24.5 °C 1009 hPa SSE 4.8 km/h 19.3 km/h 54 % 0 mm
15:04 35.2 °C 24.8 °C 1009 hPa ESE 4.8 km/h 19.3 km/h 55 % 0 mm
15:09 35.5 °C 24.4 °C 1009 hPa SE 12.9 km/h 14.5 km/h 53 % 0 mm
15:14 35.9 °C 24.8 °C 1009 hPa ENE 14.5 km/h 14.5 km/h 53 % 0 mm
15:19 35.6 °C 24.5 °C 1009 hPa SSE 8 km/h 14.5 km/h 53 % 0 mm
15:24 35.4 °C 24.4 °C 1009 hPa SSE 6.4 km/h 14.5 km/h 53 % 0 mm
15:29 35.7 °C 24.6 °C 1008.7 hPa SSE 14.5 km/h 14.5 km/h 53 % 0 mm
15:34 35.9 °C 24.8 °C 1008.7 hPa South 6.4 km/h 16.1 km/h 53 % 0 mm
15:39 35.9 °C 24.5 °C 1008.7 hPa East 8 km/h 17.7 km/h 52 % 0 mm
15:44 35.6 °C 24.5 °C 1008.7 hPa SSE 4.8 km/h 17.7 km/h 53 % 0 mm
15:49 35.7 °C 24.3 °C 1008.7 hPa SSE 11.3 km/h 17.7 km/h 52 % 0 mm
15:55 35.6 °C 24.2 °C 1008.7 hPa ESE 6.4 km/h 14.5 km/h 52 % 0 mm
16:00 35.4 °C 24.4 °C 1008.4 hPa ESE 11.3 km/h 14.5 km/h 53 % 0 mm
16:05 35.3 °C 24.3 °C 1008.4 hPa East 6.4 km/h 20.9 km/h 53 % 0 mm
16:10 35.2 °C 24.5 °C 1008.4 hPa SE 6.4 km/h 20.9 km/h 54 % 0 mm
16:15 35.3 °C 24.6 °C 1008.4 hPa SSE 9.7 km/h 20.9 km/h 54 % 0 mm
16:20 35.3 °C 23.9 °C 1008.4 hPa South 11.3 km/h 16.1 km/h 52 % 0 mm
16:25 35.4 °C 24.4 °C 1008.4 hPa SE 8 km/h 16.1 km/h 53 % 0 mm
16:30 35.7 °C 24.6 °C 1008.4 hPa ESE 6.4 km/h 16.1 km/h 53 % 0 mm
16:35 36 °C 24.9 °C 1008.4 hPa SSE 9.7 km/h 17.7 km/h 53 % 0 mm
16:40 36.1 °C 25.3 °C 1008.4 hPa SE 8 km/h 17.7 km/h 54 % 0 mm
16:45 36.1 °C 25.3 °C 1008.4 hPa ESE 11.3 km/h 17.7 km/h 54 % 0 mm
16:50 35.8 °C 25.3 °C 1008.4 hPa SE 8 km/h 19.3 km/h 55 % 0 mm
16:55 35.7 °C 25.3 °C 1008.4 hPa SSW 1.6 km/h 19.3 km/h 55 % 0 mm
17:00 35.7 °C 25.6 °C 1008.4 hPa SSW 6.4 km/h 19.3 km/h 56 % 0 mm
17:05 35.7 °C 25.6 °C 1008.4 hPa South 6.4 km/h 17.7 km/h 56 % 0 mm
17:10 35.7 °C 25.9 °C 1008.4 hPa ESE 6.4 km/h 22.5 km/h 57 % 0 mm
17:15 35.6 °C 25.8 °C 1008.4 hPa SE 17.7 km/h 22.5 km/h 57 % 0 mm
17:20 35.6 °C 26.1 °C 1008.4 hPa SE 6.4 km/h 22.5 km/h 58 % 0 mm
17:25 35.7 °C 25.9 °C 1008.4 hPa SE 9.7 km/h 19.3 km/h 57 % 0 mm
17:30 35.4 °C 25.9 °C 1008.4 hPa ESE 11.3 km/h 19.3 km/h 58 % 0 mm
17:35 35.3 °C 26.1 °C 1008.4 hPa SSE 6.4 km/h 19.3 km/h 59 % 0 mm
17:40 35.5 °C 26 °C 1008.4 hPa SE 4.8 km/h 19.3 km/h 58 % 0 mm
17:45 35.3 °C 26.1 °C 1008.4 hPa SSE 9.7 km/h 19.3 km/h 59 % 0 mm
17:50 35.1 °C 26.2 °C 1008.4 hPa SE 8 km/h 19.3 km/h 60 % 0 mm
17:55 35.1 °C 26.2 °C 1008.4 hPa South 11.3 km/h 19.3 km/h 60 % 0 mm
18:00 35 °C 26.3 °C 1008.4 hPa East 11.3 km/h 16.1 km/h 61 % 0 mm
18:05 34.9 °C 26.3 °C 1008.4 hPa East 14.5 km/h 16.1 km/h 61 % 0 mm
18:10 34.8 °C 26.2 °C 1008.4 hPa SSE 12.9 km/h 19.3 km/h 61 % 0 mm
18:15 34.4 °C 26.1 °C 1008.4 hPa South 12.9 km/h 20.9 km/h 62 % 0 mm
18:20 34.4 °C 26.3 °C 1008.4 hPa SE 11.3 km/h 20.9 km/h 63 % 0 mm
18:25 34.5 °C 26.2 °C 1008.4 hPa ESE 9.7 km/h 20.9 km/h 62 % 0 mm
18:30 34.3 °C 26 °C 1008.4 hPa SSE 12.9 km/h 22.5 km/h 62 % 0 mm
18:35 34 °C 26 °C 1008.4 hPa SSE 8 km/h 22.5 km/h 63 % 0 mm
18:40 33.9 °C 25.9 °C 1008.4 hPa SE 9.7 km/h 22.5 km/h 63 % 0 mm
18:45 33.9 °C 25.9 °C 1008.4 hPa SE 12.9 km/h 19.3 km/h 63 % 0 mm
18:50 33.7 °C 25.9 °C 1008.4 hPa ESE 19.3 km/h 19.3 km/h 64 % 0 mm
18:55 33.6 °C 25.8 °C 1008.4 hPa ESE 12.9 km/h 19.3 km/h 64 % 0 mm
19:00 33.4 °C 25.9 °C 1008.4 hPa SSE 9.7 km/h 19.3 km/h 65 % 0 mm
19:05 33.2 °C 25.7 °C 1008.4 hPa SE 12.9 km/h 19.3 km/h 65 % 0 mm
19:10 33.1 °C 25.9 °C 1008.7 hPa SSW 6.4 km/h 19.3 km/h 66 % 0 mm
19:15 33.1 °C 25.9 °C 1008.7 hPa SE 11.3 km/h 19.3 km/h 66 % 0 mm
19:20 32.9 °C 26 °C 1008.7 hPa SE 8 km/h 17.7 km/h 67 % 0 mm
19:25 32.8 °C 26.1 °C 1008.7 hPa SSE 12.9 km/h 20.9 km/h 68 % 0 mm
19:30 32.5 °C 25.8 °C 1008.7 hPa SE 8 km/h 20.9 km/h 68 % 0 mm
19:36 32.3 °C 25.9 °C 1009 hPa SE 9.7 km/h 20.9 km/h 69 % 0 mm
19:41 32.2 °C 26 °C 1009 hPa ESE 6.4 km/h 19.3 km/h 70 % 0 mm
19:46 32.1 °C 25.9 °C 1009 hPa ESE 16.1 km/h 19.3 km/h 70 % 0 mm
19:51 31.9 °C 25.7 °C 1009 hPa ESE 14.5 km/h 19.3 km/h 70 % 0 mm
19:56 31.8 °C 25.6 °C 1009 hPa SSE 9.7 km/h 19.3 km/h 70 % 0 mm
20:01 31.8 °C 25.9 °C 1009 hPa SSE 14.5 km/h 17.7 km/h 71 % 0 mm
20:06 31.7 °C 25.8 °C 1009 hPa SSE 9.7 km/h 19.3 km/h 71 % 0 mm
20:11 31.6 °C 25.7 °C 1009 hPa South 8 km/h 20.9 km/h 71 % 0 mm
20:16 31.4 °C 25.7 °C 1009.4 hPa SE 9.7 km/h 20.9 km/h 72 % 0 mm
20:21 31.3 °C 25.6 °C 1009.4 hPa SSE 9.7 km/h 20.9 km/h 72 % 0 mm
20:26 31.3 °C 25.9 °C 1009.4 hPa SE 9.7 km/h 17.7 km/h 73 % 0 mm
20:31 31.2 °C 25.8 °C 1009.4 hPa SSE 6.4 km/h 19.3 km/h 73 % 0 mm
20:36 31.1 °C 25.9 °C 1009.4 hPa SE 9.7 km/h 20.9 km/h 74 % 0 mm
20:41 30.9 °C 25.7 °C 1009.7 hPa ESE 16.1 km/h 20.9 km/h 74 % 0 mm
20:46 30.8 °C 25.9 °C 1009.7 hPa South 14.5 km/h 20.9 km/h 75 % 0 mm
20:51 30.7 °C 25.8 °C 1009.7 hPa SE 11.3 km/h 19.3 km/h 75 % 0 mm
20:56 30.6 °C 25.9 °C 1009.7 hPa SE 4.8 km/h 19.3 km/h 76 % 0 mm
21:01 30.4 °C 25.7 °C 1010 hPa SE 8 km/h 17.7 km/h 76 % 0 mm
21:06 30.3 °C 25.8 °C 1010 hPa SSE 9.7 km/h 16.1 km/h 77 % 0 mm
21:11 30.1 °C 25.6 °C 1010 hPa SSE 8 km/h 16.1 km/h 77 % 0 mm
21:16 30.1 °C 25.8 °C 1010 hPa SE 9.7 km/h 16.1 km/h 78 % 0 mm
21:21 30 °C 25.7 °C 1010 hPa SE 12.9 km/h 20.9 km/h 78 % 0 mm
21:26 29.9 °C 25.6 °C 1010.4 hPa SSE 4.8 km/h 20.9 km/h 78 % 0 mm
21:31 29.8 °C 25.5 °C 1010.4 hPa SE 4.8 km/h 20.9 km/h 78 % 0 mm
21:36 29.7 °C 25.4 °C 1010.7 hPa SSE 4.8 km/h 16.1 km/h 78 % 0 mm
21:41 29.6 °C 25.6 °C 1010.7 hPa South 8 km/h 12.9 km/h 79 % 0 mm
21:46 29.6 °C 25.6 °C 1010.7 hPa South 3.2 km/h 12.9 km/h 79 % 0 mm
21:51 29.5 °C 25.5 °C 1011.1 hPa SE 11.3 km/h 12.9 km/h 79 % 0 mm
21:56 29.4 °C 25.4 °C 1011.1 hPa SE 8 km/h 16.1 km/h 79 % 0 mm
22:01 29.4 °C 25.4 °C 1011.1 hPa SSW 3.2 km/h 16.1 km/h 79 % 0 mm
22:06 29.4 °C 25.6 °C 1011.1 hPa SE 4.8 km/h 16.1 km/h 80 % 0 mm
22:11 29.3 °C 25.5 °C 1011.1 hPa SE 8 km/h 14.5 km/h 80 % 0 mm
22:16 29.3 °C 25.5 °C 1011.1 hPa South 8 km/h 14.5 km/h 80 % 0 mm
22:21 29.2 °C 25.4 °C 1011.1 hPa SSE 9.7 km/h 14.5 km/h 80 % 0 mm
22:26 29.1 °C 25.5 °C 1011.4 hPa SE 8 km/h 14.5 km/h 81 % 0 mm
22:31 29.1 °C 25.5 °C 1011.4 hPa South 3.2 km/h 14.5 km/h 81 % 0 mm
22:37 29 °C 25.4 °C 1011.4 hPa South 3.2 km/h 11.3 km/h 81 % 0 mm
22:42 28.9 °C 25.5 °C 1011.7 hPa SSE 3.2 km/h 11.3 km/h 82 % 0 mm
22:47 28.9 °C 25.5 °C 1011.7 hPa SSE 6.4 km/h 9.7 km/h 82 % 0 mm
22:52 28.8 °C 25.4 °C 1011.7 hPa SE 3.2 km/h 8 km/h 82 % 0 mm
22:57 28.7 °C 25.5 °C 1011.7 hPa ESE 4.8 km/h 9.7 km/h 83 % 0 mm
23:02 28.7 °C 25.5 °C 1012.1 hPa ESE 6.4 km/h 12.9 km/h 83 % 0 mm
23:07 28.6 °C 25.4 °C 1012.1 hPa SSW 4.8 km/h 12.9 km/h 83 % 0 mm
23:12 28.6 °C 25.6 °C 1012.1 hPa ESE 6.4 km/h 12.9 km/h 84 % 0 mm
23:17 28.4 °C 25.4 °C 1012.1 hPa South 6.4 km/h 9.7 km/h 84 % 0 mm
23:22 28.4 °C 25.4 °C 1012.1 hPa SE 6.4 km/h 9.7 km/h 84 % 0 mm
23:27 28.4 °C 25.6 °C 1012.1 hPa SSE 6.4 km/h 9.7 km/h 85 % 0 mm
23:32 28.3 °C 25.5 °C 1011.7 hPa South 6.4 km/h 9.7 km/h 85 % 0 mm
23:37 28.3 °C 25.5 °C 1012.1 hPa ESE 4.8 km/h 11.3 km/h 85 % 0 mm
23:42 28.2 °C 25.6 °C 1012.4 hPa South 3.2 km/h 11.3 km/h 86 % 0 mm
23:47 28.1 °C 25.5 °C 1012.1 hPa South 8 km/h 11.3 km/h 86 % 0 mm
23:52 28.1 °C 25.7 °C 1012.1 hPa SE 8 km/h 9.7 km/h 87 % 0 mm
23:57 28 °C 25.6 °C 1012.1 hPa South 3.2 km/h 9.7 km/h 87 % 0 mm
Spring, Texas: Villages of Bridgestone
Compliments of Weather Underground - 2.75 mb

Script developed by  Jim McMurry - jmcmurry@mwt.net Adapted for the template by  Wim van der Kuil - Leuven-Template.eu

You find our weather info also at:

UK Metoffice

WeatherCloud

Weather Underground

Mid-South Weather Network

AWEKAS

Citizen Weather Observer Program (CWOP)

HAMweather, WeatherForYou, PWS Weather

Equipment we use:

Weather-station
Davis Vantage Vue

Weather-program
Meteohub

Weather-server
Debian 7.9 x86 (Guest)

Provider
DreamHost

Davis Vantage Vue

Meteohub

Debian 7.9 x86 (Guest)

DreamHost